Location: Bois de la Silve
(44.4667°N, 6.7833°E)
Time: 10:57:27
(UTC+00:00)

Gbstr 26 Del rocket - Pass Details

Date: 14 July 2020
Orbit: 492 x 1264 km, 51.8° (Epoch: 05 August)

Event Time Altitude Azimuth Distance (km) Brightness Sun altitude
Rises 03:24:46 0° 296° (WNW) 2,800 6.2 -6.2°
Reaches altitude 10° 03:26:59 10° 287° (WNW) 1,983 5.3 -5.9°
Maximum altitude 03:31:07 36° 221° (SW) 1,105 3.9 -5.3°
Drops below altitude 10° 03:36:05 10° 156° (SSE) 2,392 5.9 -4.6°
Sets 03:39:00 0° 148° (SSE) 3,466 6.8 -4.2°
